Flag for U.S.A. Weather past 2 weeks in Oxnard, California, U.S.A.

Now
74 °F

Sunny.


Feels Like: 76 °F
Forecast: 65 / 79 °F
Wind: 17 mph from West

Location: Oxnard Airport

Current Time: Aug 4, 2015 at 5:28:31 PM

Latest Report: Aug 4, 2015 at 4:51 PM


Visibility: 10 mi

Pressure: 29.90 "Hg

Humidity: 64%

Dew point: 61 °F

Location of OxnardLocation

Historic Weather in Oxnard — Graph

°F

Oxnard temperature yesterday

Maximum temperature yesterday: 77 °F (at 3:51 PM)
Minimum temperature yesterday: 63 °F (at 4:51 AM)
Average temperature yesterday: 70 °F

Past Weeks' High & Low Weather Summary

 TemperatureHumidityPressure
High79 °F (Jul 25, 2:51 PM)100% (Jul 21, 12:58 AM)30.08 "Hg (Jul 21, 12:58 AM)
Low63 °F (Jul 25, 5:03 AM)50% (Jul 25, 12:51 PM)29.82 "Hg (Aug 2, 7:51 PM)
Average69 °F79%29.93 "Hg
* Reported Jul 20 3:51 PM — Aug 4 3:51 PM, Oxnard, Weather by CustomWeather, © 2015

Note: Actual official high and low records may vary slightly from our data, if they occured in-between our weather recording intervals... More about our weather records

Advertising

Oxnard weather history for previous 24 hours

 ConditionsComfort  
Time TempWeatherWind HumidityBarometerVisibility
3:51 PM
Tue, Aug 4
75 °FSunny.18 mph62%29.91 "Hg10 mi
2:51 PM75 °FSunny.13 mph60%29.93 "Hg10 mi
1:51 PM76 °FSunny.18 mph56%29.94 "Hg10 mi
12:51 PM77 °FSunny.15 mph54%29.95 "Hg10 mi
11:51 AM76 °FSunny.9 mph56%29.94 "Hg10 mi
9:51 AM72 °FSunny.7 mph68%29.92 "Hg10 mi
8:51 AM72 °FSunny.5 mph68%29.91 "Hg9 mi
7:51 AM70 °FSunny.No wind71%29.91 "Hg8 mi
6:51 AM64 °FClear.No wind81%29.90 "Hg8 mi
5:51 AM63 °FClear.3 mph84%29.88 "Hg9 mi
4:51 AM64 °FClear.3 mph84%29.87 "Hg9 mi
3:51 AM64 °FClear.5 mph84%29.88 "Hg9 mi
2:51 AM66 °FClear.No wind81%29.87 "Hg8 mi
1:51 AM66 °FClear.3 mph81%29.86 "Hg8 mi
12:51 AM67 °FClear.No wind79%29.87 "Hg9 mi
11:51 PM
Mon, Aug 3
67 °FMild.8 mph79%29.88 "Hg9 mi
10:51 PM67 °FClear.9 mph81%29.88 "Hg8 mi
9:51 PM67 °FClear.9 mph79%29.88 "Hg9 mi
8:51 PM69 °FSunny.9 mph76%29.86 "Hg9 mi
7:51 PM69 °FSunny.13 mph73%29.85 "Hg8 mi
6:51 PM71 °FSunny.15 mph68%29.85 "Hg9 mi
5:51 PM73 °FSunny.22 mph64%29.86 "Hg9 mi
Weather by CustomWeather, © 2015

See weather overviewHow to use our weather pages